HST 1 20580U 90037B 24324.48028315 .00008859 00000-0 37749-3 0 9993 2 20580 28.4701 22.2868 0001652 290.1584 69.8832 15.21176223700676 ISS (ZARYA) 1 25544U 98067A 24325.05772537 -.00616992 00000-0 -11832-1 0 9993 2 25544 51.6408 263.1527 0007793 241.4078 207.7442 15.49574119482729 CXO 1 25867U 99040B 24326.52387355 .00000571 00000-0 00000-0 0 9998 2 25867 44.7729 141.3483 8721311 304.3692 359.8417 0.37806941 15154